TimeCDT,TemperatureF,Dew PointF,Humidity,Sea Level PressureIn,VisibilityMPH,Wind Direction,Wind SpeedMPH,Gust SpeedMPH,PrecipitationIn,Events,Conditions,WindDirDegrees,DateUTC
12:51 AM,63.0,54.0,72,30.03,10.0,SE,6.9,-,N/A,,Partly Cloudy,130,2013-03-21 05:51:00
1:51 AM,61.0,52.0,72,30.01,10.0,SE,3.5,-,N/A,,Partly Cloudy,140,2013-03-21 06:51:00
2:51 AM,63.0,55.0,75,29.99,10.0,East,3.5,-,N/A,,Mostly Cloudy,100,2013-03-21 07:51:00
3:33 AM,62.6,53.6,72,29.97,10.0,SSE,5.8,-,N/A,,Mostly Cloudy,150,2013-03-21 08:33:00
3:49 AM,62.6,53.6,72,29.95,10.0,SE,9.2,-,N/A,,Scattered Clouds,140,2013-03-21 08:49:00
3:51 AM,64.0,54.0,70,29.95,10.0,SE,9.2,-,N/A,,Scattered Clouds,140,2013-03-21 08:51:00
4:51 AM,63.0,55.0,75,29.94,10.0,SE,4.6,-,N/A,,Mostly Cloudy,130,2013-03-21 09:51:00
5:51 AM,63.0,54.0,72,29.92,10.0,SE,4.6,-,N/A,,Mostly Cloudy,140,2013-03-21 10:51:00
6:51 AM,61.0,54.0,78,29.93,10.0,SE,5.8,-,N/A,,Scattered Clouds,140,2013-03-21 11:51:00
7:51 AM,61.0,53.1,75,29.94,10.0,Calm,Calm,-,N/A,,Scattered Clouds,0,2013-03-21 12:51:00
8:51 AM,66.0,59.0,78,29.93,10.0,SE,4.6,-,N/A,,Scattered Clouds,140,2013-03-21 13:51:00
9:51 AM,73.0,60.1,64,29.91,10.0,SSE,17.3,23.0,N/A,,Scattered Clouds,150,2013-03-21 14:51:00
10:51 AM,75.9,55.9,50,29.90,10.0,South,20.7,26.5,N/A,,Partly Cloudy,170,2013-03-21 15:51:00
11:51 AM,77.0,57.0,50,29.87,10.0,South,21.9,34.5,N/A,,Mostly Cloudy,170,2013-03-21 16:51:00
12:51 PM,75.0,57.9,55,29.85,10.0,South,21.9,-,N/A,,Overcast,170,2013-03-21 17:51:00
1:51 PM,75.9,59.0,56,29.81,10.0,SSE,18.4,-,N/A,,Overcast,150,2013-03-21 18:51:00
2:51 PM,75.9,59.0,56,29.77,10.0,SSE,20.7,25.3,N/A,,Overcast,160,2013-03-21 19:51:00
3:51 PM,75.9,59.0,56,29.72,10.0,SSE,23.0,-,N/A,,Overcast,160,2013-03-21 20:51:00
4:51 PM,75.9,60.1,58,29.70,10.0,SSE,23.0,-,N/A,,Overcast,150,2013-03-21 21:51:00
5:51 PM,75.9,61.0,60,29.69,10.0,SSE,24.2,32.2,N/A,,Overcast,160,2013-03-21 22:51:00
6:51 PM,73.9,62.1,66,29.69,10.0,SSE,21.9,29.9,N/A,,Overcast,150,2013-03-21 23:51:00
7:51 PM,73.0,62.1,68,29.68,10.0,SSE,21.9,-,N/A,,Overcast,150,2013-03-22 00:51:00
8:51 PM,72.0,63.0,73,29.68,10.0,SSE,21.9,27.6,N/A,,Overcast,150,2013-03-22 01:51:00
9:51 PM,72.0,64.0,76,29.70,10.0,SSE,19.6,-,N/A,,Overcast,160,2013-03-22 02:51:00
10:51 PM,72.0,64.0,76,29.71,10.0,SSE,21.9,-,N/A,,Overcast,160,2013-03-22 03:51:00
11:51 PM,72.0,64.9,78,29.69,10.0,South,20.7,-,N/A,,Mostly Cloudy,170,2013-03-22 04:51:00